Time,TemperatureF,DewpointF,PressureIn,WindDirection,WindDirectionDegrees,WindSpeedMPH,WindSpeedGustMPH,Humidity,HourlyPrecipIn,Conditions,Clouds,dailyrainin,SolarRadiationWatts/m^2,SoftwareType,DateUTC
2013-07-04 00:01:00,69.0,65.0,30.02,East,85,0.0,0.0,87,0.00,,,0.00,0.000000,,2013-07-04 05:01:00,
2013-07-04 00:12:00,68.0,64.0,30.02,East,85,0.0,0.0,88,0.00,,,0.00,0.000000,,2013-07-04 05:12:00,
2013-07-04 00:22:00,68.0,65.0,30.01,East,85,0.0,0.0,89,0.00,,,0.00,0.000000,,2013-07-04 05:22:00,
2013-07-04 00:33:00,68.0,65.0,30.01,East,85,0.0,0.0,89,0.00,,,0.00,0.000000,,2013-07-04 05:33:00,
2013-07-04 00:43:00,68.0,65.0,30.01,East,85,0.0,0.0,90,0.00,,,0.00,0.000000,,2013-07-04 05:43:00,
2013-07-04 00:52:00,68.0,65.0,30.01,East,85,0.0,0.0,90,0.00,,,0.00,0.000000,,2013-07-04 05:52:00,
2013-07-04 01:11:00,67.0,64.0,30.01,East,85,0.0,0.0,90,0.00,,,0.00,0.000000,,2013-07-04 06:11:00,
2013-07-04 01:22:00,67.0,64.0,30.01,East,85,0.0,0.0,91,0.00,,,0.00,0.000000,,2013-07-04 06:22:00,
2013-07-04 01:34:00,67.0,64.0,30.01,East,85,0.0,0.0,91,0.00,,,0.00,0.000000,,2013-07-04 06:34:00,
2013-07-04 01:43:00,67.0,64.0,30.01,East,85,0.0,0.0,91,0.00,,,0.00,0.000000,,2013-07-04 06:43:00,
2013-07-04 01:52:00,67.0,64.0,30.01,East,85,0.0,0.0,91,0.00,,,0.00,0.000000,,2013-07-04 06:52:00,
2013-07-04 02:02:00,67.0,64.0,30.00,East,85,0.0,0.0,91,0.00,,,0.00,0.000000,,2013-07-04 07:02:00,
2013-07-04 02:12:00,67.0,65.0,30.00,East,85,0.0,0.0,92,0.00,,,0.00,0.000000,,2013-07-04 07:12:00,
2013-07-04 02:22:00,67.0,65.0,30.00,East,85,0.0,0.0,92,0.00,,,0.00,0.000000,,2013-07-04 07:22:00,
2013-07-04 02:34:00,66.0,64.0,30.00,East,85,0.0,0.0,92,0.00,,,0.00,0.000000,,2013-07-04 07:34:00,
2013-07-04 02:52:00,66.0,64.0,29.99,East,85,0.0,0.0,92,0.00,,,0.00,0.000000,,2013-07-04 07:52:00,
2013-07-04 03:02:00,66.0,64.0,29.99,East,85,0.0,0.0,92,0.00,,,0.00,0.000000,,2013-07-04 08:02:00,
2013-07-04 03:11:00,66.0,64.0,29.99,East,85,0.0,0.0,93,0.00,,,0.00,0.000000,,2013-07-04 08:11:00,
2013-07-04 03:22:00,66.0,64.0,29.99,East,85,0.0,0.0,93,0.00,,,0.00,0.000000,,2013-07-04 08:22:00,
2013-07-04 03:33:00,66.0,64.0,29.98,East,85,0.0,0.0,93,0.00,,,0.00,0.000000,,2013-07-04 08:33:00,
2013-07-04 03:42:00,66.0,64.0,29.99,East,85,0.0,0.0,93,0.00,,,0.00,0.000000,,2013-07-04 08:42:00,
2013-07-04 03:52:00,66.0,64.0,29.99,East,85,0.0,0.0,93,0.00,,,0.00,0.000000,,2013-07-04 08:52:00,
2013-07-04 04:02:00,66.0,64.0,29.99,East,85,0.0,0.0,93,0.00,,,0.00,0.000000,,2013-07-04 09:02:00,
2013-07-04 04:11:00,66.0,64.0,29.98,East,85,0.0,0.0,93,0.00,,,0.00,0.000000,,2013-07-04 09:11:00,
2013-07-04 04:32:00,65.0,63.0,29.98,East,85,0.0,0.0,93,0.00,,,0.00,0.000000,,2013-07-04 09:32:00,
2013-07-04 04:42:00,65.0,63.0,29.98,East,85,0.0,0.0,93,0.00,,,0.00,0.000000,,2013-07-04 09:42:00,
2013-07-04 04:52:00,65.0,63.0,29.98,East,85,0.0,0.0,93,0.00,,,0.00,0.000000,,2013-07-04 09:52:00,
2013-07-04 05:01:00,65.0,63.0,29.99,East,85,0.0,0.0,93,0.00,,,0.00,0.000000,,2013-07-04 10:01:00,
2013-07-04 05:11:00,65.0,63.0,29.99,East,85,0.0,0.0,93,0.00,,,0.00,0.000000,,2013-07-04 10:11:00,
2013-07-04 05:22:00,65.0,63.0,29.99,East,85,0.0,0.0,94,0.00,,,0.00,0.000000,,2013-07-04 10:22:00,
2013-07-04 05:42:00,65.0,63.0,30.00,East,85,0.0,0.0,94,0.00,,,0.00,0.000000,,2013-07-04 10:42:00,
2013-07-04 05:53:00,65.0,63.0,30.00,East,85,0.0,0.0,94,0.00,,,0.00,0.000000,,2013-07-04 10:53:00,
2013-07-04 06:02:00,65.0,63.0,30.00,East,85,0.0,0.0,94,0.00,,,0.00,0.000000,,2013-07-04 11:02:00,
2013-07-04 06:11:00,65.0,63.0,30.00,East,85,0.0,0.0,94,0.00,,,0.00,0.000000,,2013-07-04 11:11:00,
2013-07-04 06:22:00,64.0,62.0,30.00,East,85,0.0,0.0,94,0.00,,,0.00,14.000000,,2013-07-04 11:22:00,
2013-07-04 06:34:00,65.0,63.0,30.00,East,85,0.0,0.0,94,0.00,,,0.00,25.000000,,2013-07-04 11:34:00,
2013-07-04 06:43:00,65.0,63.0,30.00,East,89,0.0,0.0,94,0.00,,,0.00,42.000000,,2013-07-04 11:43:00,
2013-07-04 06:53:00,65.0,64.0,30.00,East,89,0.0,0.0,95,0.00,,,0.00,63.000000,,2013-07-04 11:53:00,
2013-07-04 07:02:00,65.0,64.0,30.00,East,89,0.0,0.0,95,0.00,,,0.00,84.000000,,2013-07-04 12:02:00,
2013-07-04 07:12:00,66.0,65.0,30.00,East,89,0.0,0.0,95,0.00,,,0.00,104.000000,,2013-07-04 12:12:00,
2013-07-04 07:22:00,66.0,65.0,30.01,East,89,0.0,0.0,95,0.00,,,0.00,134.000000,,2013-07-04 12:22:00,
2013-07-04 07:33:00,67.0,66.0,30.00,East,89,0.0,0.0,95,0.00,,,0.00,156.000000,,2013-07-04 12:33:00,
2013-07-04 07:43:00,67.0,66.0,30.01,East,89,0.0,0.0,95,0.00,,,0.00,178.000000,,2013-07-04 12:43:00,
2013-07-04 07:52:00,68.0,66.0,30.01,East,89,0.0,0.0,94,0.00,,,0.00,211.000000,,2013-07-04 12:52:00,
2013-07-04 08:02:00,69.0,67.0,30.01,East,89,0.0,0.0,94,0.00,,,0.00,244.000000,,2013-07-04 13:02:00,
2013-07-04 08:12:00,70.0,68.0,30.01,East,89,0.0,0.0,92,0.00,,,0.00,276.000000,,2013-07-04 13:12:00,
2013-07-04 08:23:00,71.0,68.0,30.01,East,89,0.0,0.0,90,0.00,,,0.00,320.000000,,2013-07-04 13:23:00,
2013-07-04 08:33:00,72.0,68.0,30.01,East,86,0.0,0.0,88,0.00,,,0.00,352.000000,,2013-07-04 13:33:00,
2013-07-04 08:43:00,73.0,69.0,30.01,East,86,0.0,0.0,86,0.00,,,0.00,378.000000,,2013-07-04 13:43:00,
2013-07-04 08:53:00,74.0,69.0,30.01,ENE,77,0.0,0.0,85,0.00,,,0.00,408.000000,,2013-07-04 13:53:00,
2013-07-04 09:02:00,75.0,69.0,30.01,East,79,0.0,0.0,83,0.00,,,0.00,450.000000,,2013-07-04 14:02:00,
2013-07-04 09:11:00,76.0,70.0,30.01,East,79,0.0,0.0,81,0.00,,,0.00,485.000000,,2013-07-04 14:11:00,
2013-07-04 09:22:00,77.0,70.0,30.01,West,261,0.0,4.0,80,0.00,,,0.00,513.000000,,2013-07-04 14:22:00,
2013-07-04 09:33:00,78.0,71.0,30.01,SW,236,0.0,0.0,78,0.00,,,0.00,552.000000,,2013-07-04 14:33:00,
2013-07-04 09:43:00,79.0,71.0,30.01,SW,227,0.0,0.0,76,0.00,,,0.00,585.000000,,2013-07-04 14:43:00,
2013-07-04 09:53:00,80.0,71.0,30.01,North,360,0.0,2.0,74,0.00,,,0.00,617.000000,,2013-07-04 14:53:00,
2013-07-04 10:02:00,81.0,72.0,30.01,North,360,0.0,0.0,73,0.00,,,0.00,631.000000,,2013-07-04 15:02:00,
2013-07-04 10:11:00,80.0,70.0,30.01,NNE,30,0.0,3.0,71,0.00,,,0.00,661.000000,,2013-07-04 15:11:00,
2013-07-04 10:23:00,80.0,70.0,30.01,NE,44,0.0,0.0,71,0.00,,,0.00,691.000000,,2013-07-04 15:23:00,
2013-07-04 10:33:00,82.0,72.0,30.01,NE,56,0.0,3.0,71,0.00,,,0.00,714.000000,,2013-07-04 15:33:00,
2013-07-04 10:43:00,82.0,71.0,30.01,East,82,0.0,3.0,70,0.00,,,0.00,745.000000,,2013-07-04 15:43:00,
2013-07-04 10:52:00,83.0,71.0,30.01,NNE,22,0.0,4.0,68,0.00,,,0.00,779.000000,,2013-07-04 15:52:00,
2013-07-04 11:02:00,83.0,70.0,30.01,NE,38,0.0,5.0,66,0.00,,,0.00,789.000000,,2013-07-04 16:02:00,
2013-07-04 11:11:00,83.0,71.0,30.01,ENE,78,0.0,1.0,67,0.00,,,0.00,840.000000,,2013-07-04 16:11:00,
2013-07-04 11:22:00,85.0,72.0,30.01,South,178,0.0,2.0,65,0.00,,,0.00,802.000000,,2013-07-04 16:22:00,
2013-07-04 11:33:00,85.0,71.0,30.01,North,5,0.0,6.0,63,0.00,,,0.00,846.000000,,2013-07-04 16:33:00,
2013-07-04 11:43:00,85.0,70.0,30.01,ENE,60,0.0,5.0,62,0.00,,,0.00,865.000000,,2013-07-04 16:43:00,
2013-07-04 11:52:00,86.0,70.0,30.01,NE,52,0.0,6.0,59,0.00,,,0.00,893.000000,,2013-07-04 16:52:00,
2013-07-04 12:01:00,87.0,70.0,30.01,NE,51,0.0,0.0,58,0.00,,,0.00,972.000000,,2013-07-04 17:01:00,
2013-07-04 12:12:00,87.0,70.0,30.00,NNE,24,0.0,7.0,57,0.00,,,0.00,1014.000000,,2013-07-04 17:12:00,
2013-07-04 12:22:00,88.0,69.0,30.00,ENE,65,3.0,6.0,54,0.00,,,0.00,1049.000000,,2013-07-04 17:22:00,
2013-07-04 12:34:00,86.0,69.0,30.00,East,87,1.0,8.0,57,0.00,,,0.00,942.000000,,2013-07-04 17:34:00,
2013-07-04 12:43:00,88.0,71.0,30.00,NE,41,2.0,6.0,57,0.00,,,0.00,1002.000000,,2013-07-04 17:43:00,
2013-07-04 12:53:00,86.0,70.0,30.00,NE,41,4.0,9.0,59,0.00,,,0.00,1078.000000,,2013-07-04 17:53:00,
2013-07-04 13:01:00,86.0,70.0,30.00,ESE,107,1.0,6.0,59,0.00,,,0.00,366.000000,,2013-07-04 18:01:00,
2013-07-04 13:11:00,87.0,71.0,29.99,NNE,19,0.0,7.0,59,0.00,,,0.00,274.000000,,2013-07-04 18:11:00,
2013-07-04 13:22:00,86.0,70.0,29.99,ESE,105,0.0,7.0,60,0.00,,,0.00,357.000000,,2013-07-04 18:22:00,
2013-07-04 13:33:00,87.0,70.0,29.99,East,88,0.0,4.0,57,0.00,,,0.00,700.000000,,2013-07-04 18:33:00,
2013-07-04 13:43:00,88.0,70.0,29.98,East,96,0.0,7.0,55,0.00,,,0.00,353.000000,,2013-07-04 18:43:00,
2013-07-04 13:52:00,88.0,68.0,29.98,SE,141,4.0,9.0,52,0.00,,,0.00,1005.000000,,2013-07-04 18:52:00,
2013-07-04 14:01:00,87.0,68.0,29.98,ESE,104,4.0,11.0,53,0.00,,,0.00,1060.000000,,2013-07-04 19:01:00,
2013-07-04 14:12:00,87.0,68.0,29.97,NNE,24,5.0,7.0,54,0.00,,,0.00,990.000000,,2013-07-04 19:12:00,
2013-07-04 14:22:00,88.0,68.0,29.97,NNE,28,3.0,7.0,51,0.00,,,0.00,946.000000,,2013-07-04 19:22:00,
2013-07-04 14:33:00,88.0,69.0,29.96,NE,36,2.0,7.0,54,0.00,,,0.00,937.000000,,2013-07-04 19:33:00,
2013-07-04 14:43:00,90.0,70.0,29.96,North,10,2.0,6.0,52,0.00,,,0.00,937.000000,,2013-07-04 19:43:00,
2013-07-04 14:53:00,89.0,68.0,29.96,ENE,61,3.0,8.0,50,0.00,,,0.00,846.000000,,2013-07-04 19:53:00,
2013-07-04 15:01:00,89.0,68.0,29.96,ENE,57,0.0,6.0,51,0.00,,,0.00,264.000000,,2013-07-04 20:01:00,
2013-07-04 15:11:00,89.0,67.0,29.95,NNE,26,1.0,6.0,49,0.00,,,0.00,889.000000,,2013-07-04 20:11:00,
2013-07-04 15:22:00,90.0,68.0,29.95,ENE,62,4.0,10.0,48,0.00,,,0.00,881.000000,,2013-07-04 20:22:00,
2013-07-04 15:33:00,89.0,67.0,29.95,ESE,113,2.0,5.0,49,0.00,,,0.00,661.000000,,2013-07-04 20:33:00,
2013-07-04 15:42:00,90.0,68.0,29.94,North,11,2.0,5.0,49,0.00,,,0.00,798.000000,,2013-07-04 20:42:00,
2013-07-04 15:53:00,90.0,68.0,29.94,SSE,150,0.0,6.0,48,0.00,,,0.00,782.000000,,2013-07-04 20:53:00,
2013-07-04 16:01:00,90.0,66.0,29.93,ENE,62,0.0,6.0,46,0.00,,,0.00,747.000000,,2013-07-04 21:01:00,
2013-07-04 16:11:00,90.0,68.0,29.93,NE,55,4.0,8.0,49,0.00,,,0.00,744.000000,,2013-07-04 21:11:00,
2013-07-04 16:22:00,90.0,68.0,29.93,North,360,3.0,8.0,49,0.00,,,0.00,724.000000,,2013-07-04 21:22:00,
2013-07-04 16:32:00,89.0,67.0,29.93,NNE,24,0.0,9.0,49,0.00,,,0.00,796.000000,,2013-07-04 21:32:00,
2013-07-04 16:43:00,89.0,68.0,29.93,SSE,151,1.0,6.0,50,0.00,,,0.00,640.000000,,2013-07-04 21:43:00,
2013-07-04 16:52:00,88.0,68.0,29.93,ESE,119,1.0,5.0,51,0.00,,,0.00,214.000000,,2013-07-04 21:52:00,
2013-07-04 17:02:00,87.0,68.0,29.93,East,85,0.0,4.0,54,0.00,,,0.00,163.000000,,2013-07-04 22:02:00,
2013-07-04 17:12:00,86.0,68.0,29.92,East,84,0.0,2.0,55,0.00,,,0.00,153.000000,,2013-07-04 22:12:00,
2013-07-04 17:22:00,87.0,68.0,29.92,East,83,0.0,0.0,54,0.00,,,0.00,109.000000,,2013-07-04 22:22:00,
2013-07-04 17:33:00,86.0,68.0,29.92,ENE,78,0.0,0.0,56,0.00,,,0.00,123.000000,,2013-07-04 22:33:00,
2013-07-04 17:43:00,86.0,68.0,29.92,East,101,3.0,6.0,56,0.00,,,0.00,93.000000,,2013-07-04 22:43:00,
2013-07-04 17:52:00,86.0,69.0,29.92,ESE,120,0.0,6.0,57,0.00,,,0.00,120.000000,,2013-07-04 22:52:00,
2013-07-04 18:01:00,84.0,68.0,29.92,ESE,102,0.0,4.0,58,0.00,,,0.00,107.000000,,2013-07-04 23:01:00,
2013-07-04 18:12:00,84.0,68.0,29.92,ESE,105,0.0,0.0,59,0.00,,,0.00,105.000000,,2013-07-04 23:12:00,
2013-07-04 18:23:00,84.0,68.0,29.92,ESE,105,0.0,0.0,59,0.00,,,0.00,86.000000,,2013-07-04 23:23:00,
2013-07-04 18:33:00,84.0,69.0,29.92,ESE,104,3.0,7.0,61,0.00,,,0.00,125.000000,,2013-07-04 23:33:00,
2013-07-04 18:43:00,83.0,70.0,29.93,ESE,108,5.0,12.0,66,0.00,,,0.00,76.000000,,2013-07-04 23:43:00,
2013-07-04 18:52:00,82.0,71.0,29.93,East,92,3.0,11.0,69,0.00,,,0.00,56.000000,,2013-07-04 23:52:00,
2013-07-04 19:01:00,82.0,72.0,29.93,ESE,122,0.0,11.0,71,0.00,,,0.00,30.000000,,2013-07-05 00:01:00,
2013-07-04 19:11:00,81.0,71.0,29.93,SE,126,3.0,8.0,71,0.00,,,0.00,23.000000,,2013-07-05 00:11:00,
2013-07-04 19:22:00,81.0,71.0,29.93,ESE,105,0.0,7.0,72,0.00,,,0.00,23.000000,,2013-07-05 00:22:00,
2013-07-04 19:32:00,81.0,71.0,29.93,ENE,74,1.0,6.0,72,0.00,,,0.00,19.000000,,2013-07-05 00:32:00,
2013-07-04 19:43:00,81.0,71.0,29.93,ENE,74,1.0,6.0,72,0.00,,,0.00,19.000000,,2013-07-05 00:43:00,
2013-07-04 19:52:00,80.0,71.0,29.93,East,89,0.0,0.0,73,0.00,,,0.00,18.000000,,2013-07-05 00:52:00,
2013-07-04 20:01:00,80.0,71.0,29.93,East,90,0.0,0.0,73,0.00,,,0.00,18.000000,,2013-07-05 01:01:00,
2013-07-04 20:11:00,80.0,71.0,29.93,ESE,105,1.0,5.0,73,0.00,,,0.00,16.000000,,2013-07-05 01:11:00,
2013-07-04 20:22:00,80.0,71.0,29.93,ESE,103,0.0,5.0,73,0.00,,,0.00,16.000000,,2013-07-05 01:22:00,
2013-07-04 20:32:00,80.0,71.0,29.93,East,93,0.0,1.0,73,0.00,,,0.00,14.000000,,2013-07-05 01:32:00,
2013-07-04 20:42:00,80.0,71.0,29.93,ENE,66,0.0,0.0,73,0.00,,,0.00,12.000000,,2013-07-05 01:42:00,
2013-07-04 20:52:00,79.0,70.0,29.94,SE,142,0.0,0.0,74,0.00,,,0.00,0.000000,,2013-07-05 01:52:00,
2013-07-04 21:02:00,79.0,70.0,29.95,SE,140,0.0,0.0,75,0.00,,,0.00,0.000000,,2013-07-05 02:02:00,
2013-07-04 21:11:00,79.0,71.0,29.94,SE,139,0.0,0.0,76,0.00,,,0.00,0.000000,,2013-07-05 02:11:00,
2013-07-04 21:21:00,79.0,71.0,29.94,SE,139,0.0,0.0,76,0.00,,,0.00,0.000000,,2013-07-05 02:21:00,
2013-07-04 21:32:00,78.0,70.0,29.95,SE,141,0.0,0.0,77,0.00,,,0.00,0.000000,,2013-07-05 02:32:00,
2013-07-04 21:42:00,78.0,70.0,29.95,SE,141,0.0,0.0,77,0.00,,,0.00,0.000000,,2013-07-05 02:42:00,
2013-07-04 21:52:00,78.0,70.0,29.95,SE,141,0.0,0.0,77,0.00,,,0.00,0.000000,,2013-07-05 02:52:00,
2013-07-04 22:02:00,77.0,70.0,29.96,South,186,0.0,0.0,79,0.00,,,0.00,0.000000,,2013-07-05 03:02:00,
2013-07-04 22:11:00,77.0,70.0,29.96,South,186,0.0,0.0,79,0.00,,,0.00,0.000000,,2013-07-05 03:11:00,
2013-07-04 22:22:00,77.0,70.0,29.96,South,173,0.0,2.0,79,0.00,,,0.00,0.000000,,2013-07-05 03:22:00,
2013-07-04 22:32:00,77.0,70.0,29.96,South,173,0.0,2.0,79,0.00,,,0.00,0.000000,,2013-07-05 03:32:00,
2013-07-04 22:42:00,77.0,70.0,29.96,South,173,0.0,2.0,79,0.00,,,0.00,0.000000,,2013-07-05 03:42:00,
2013-07-04 22:52:00,77.0,70.0,29.96,South,173,0.0,2.0,79,0.00,,,0.00,0.000000,,2013-07-05 03:52:00,
2013-07-04 23:01:00,75.0,69.0,29.96,South,176,0.0,0.0,83,0.00,,,0.00,0.000000,,2013-07-05 04:01:00,
2013-07-04 23:11:00,75.0,69.0,29.97,South,176,0.0,0.0,83,0.00,,,0.00,0.000000,,2013-07-05 04:11:00,
2013-07-04 23:22:00,75.0,70.0,29.97,South,176,0.0,0.0,84,0.00,,,0.00,0.000000,,2013-07-05 04:22:00,
2013-07-04 23:33:00,75.0,70.0,29.98,South,176,0.0,0.0,85,0.00,,,0.00,0.000000,,2013-07-05 04:33:00,
2013-07-04 23:43:00,74.0,70.0,29.97,SSE,150,0.0,2.0,86,0.00,,,0.00,0.000000,,2013-07-05 04:43:00,
2013-07-04 23:53:00,74.0,69.0,29.97,SSE,167,0.0,0.0,85,0.00,,,0.00,0.000000,,2013-07-05 04:53:00,